Date String (YYYY-MM-DD hh:mm:ss) UTC,Instrument flags,Ambient pressure (hPa),Sample flow (lpm),Bypass flow (lpm),Sample temperature (°C),Ambient temperature (°C),ASC tube jacket temperature (°C),LED temperature (°C),Box temperature (°C),Sample RH (%),Span deviation,Mass concentration (μg/m³),Mass concentration (μg/m³),Mass concentration (μg/m³)
DateTimeUTC,F1_M11,P_M11,Q1_M11,Q2_M11,T1_M11,T2_M11,T3_M11,T4_M11,T5_M11,U1_M11,ZSPAN_M11,X2_M11,X0_M11,X1_M11
2023-01-06 07:00:00,,0821.4,5.00,0.00,22.3,21.3,00.0,31.1,24.1,09.1,0000.0,0006.25,0011.31,0005.68
2023-01-06 07:01:00,,0821.4,5.01,0.00,22.3,21.1,00.0,31.1,24.0,09.1,0000.0,0006.22,0010.75,0005.66
2023-01-06 07:02:00,,0821.4,5.01,0.00,22.3,21.0,00.0,31.1,24.0,09.1,0000.0,0006.20,0010.64,0005.64
2023-01-06 07:03:00,,0821.4,5.00,0.00,22.2,20.9,00.0,31.1,23.9,09.1,0000.0,0006.15,0010.63,0005.59
2023-01-06 07:04:00,,0821.4,4.99,0.00,22.2,20.8,00.0,31.1,23.9,09.1,0000.0,0006.12,0010.57,0005.56
2023-01-06 07:05:00,,0821.3,5.00,0.00,22.2,20.8,00.0,31.1,23.9,09.1,0000.0,0006.07,0010.45,0005.52
2023-01-06 07:06:00,,0821.3,4.97,0.00,22.2,20.8,00.0,31.1,23.9,09.1,0000.0,0006.03,0010.56,0005.49
2023-01-06 07:07:00,,0821.3,5.00,0.00,22.2,20.8,00.0,31.1,23.9,09.1,0000.0,0006.04,0011.13,0005.48
2023-01-06 07:08:00,,0821.4,5.01,0.00,22.2,20.8,00.0,31.1,23.9,09.1,0000.0,0006.01,0011.45,0005.48
2023-01-06 07:09:00,,0821.4,5.00,0.00,22.2,20.8,00.0,31.0,23.9,09.1,0000.0,0006.03,0011.52,0005.49
2023-01-06 07:10:00,,0821.4,5.00,0.00,22.2,20.8,00.0,31.0,23.8,09.1,0000.0,0006.01,0011.23,0005.47
2023-01-06 07:11:00,,0821.4,5.01,0.00,22.2,21.2,00.0,31.0,24.0,09.1,0000.0,0005.96,0011.19,0005.44
2023-01-06 07:12:00,,0821.3,5.00,0.00,22.3,22.2,00.0,31.0,24.2,08.9,0000.0,0005.90,0011.26,0005.41
2023-01-06 07:13:00,,0821.3,5.00,0.00,22.4,23.0,00.0,31.0,24.4,08.7,0000.0,0005.85,0010.99,0005.38
2023-01-06 07:14:00,,0821.4,4.99,0.00,22.5,22.8,00.0,31.1,24.5,08.6,0000.0,0005.84,0010.77,0005.37
2023-01-06 07:15:00,,0821.4,4.99,0.00,22.5,22.2,00.0,31.1,24.4,08.6,0000.0,0005.83,0010.73,0005.36
2023-01-06 07:16:00,,0821.4,5.01,0.00,22.5,21.7,00.0,31.2,24.2,08.7,0000.0,0005.81,0010.66,0005.36
2023-01-06 07:17:00,,0821.4,5.00,0.00,22.4,21.5,00.0,31.2,24.2,08.9,0000.0,0005.81,0010.77,0005.35
2023-01-06 07:18:00,,0821.2,4.99,0.00,22.4,21.2,00.0,31.2,24.1,08.9,0000.0,0005.80,0010.72,0005.34
2023-01-06 07:19:00,,0821.2,5.00,0.00,22.4,21.1,00.0,31.2,24.1,08.8,0000.0,0005.81,0009.98,0005.33
2023-01-06 07:20:00,,0821.4,5.00,0.00,22.4,21.1,00.0,31.2,24.1,08.8,0000.0,0005.78,0009.90,0005.31
2023-01-06 07:21:00,,0821.4,5.01,0.00,22.4,21.0,00.0,31.2,24.1,09.0,0000.0,0005.75,0010.11,0005.29
2023-01-06 07:22:00,,0821.4,5.02,0.00,22.3,21.0,00.0,31.2,24.1,09.0,0000.0,0005.74,0010.64,0005.28
2023-01-06 07:23:00,,0821.4,5.00,0.00,22.3,20.9,00.0,31.2,24.0,08.9,0000.0,0005.75,0010.57,0005.27
2023-01-06 07:24:00,,0821.4,5.02,0.00,22.3,20.9,00.0,31.2,24.0,09.0,0000.0,0005.75,0010.65,0005.25
2023-01-06 07:25:00,,0821.3,5.01,0.00,22.3,20.9,00.0,31.2,24.0,09.1,0000.0,0005.72,0010.64,0005.23
2023-01-06 07:26:00,,0821.2,4.99,0.00,22.3,20.9,00.0,31.1,24.0,09.0,0000.0,0005.69,0010.63,0005.20
2023-01-06 07:27:00,,0821.2,5.00,0.00,22.3,20.9,00.0,31.1,24.0,09.0,0000.0,0005.69,0010.64,0005.17
2023-01-06 07:28:00,,0821.1,5.01,0.00,22.3,20.8,00.0,31.1,24.0,09.1,0000.0,0005.70,0010.92,0005.16
2023-01-06 07:29:00,,0821.0,5.00,0.00,22.3,20.8,00.0,31.1,23.9,09.1,0000.0,0005.70,0010.43,0005.17
2023-01-06 07:30:00,,0821.0,5.00,0.00,22.2,20.8,00.0,31.1,23.9,09.1,0000.0,0005.71,0010.41,0005.18
2023-01-06 07:31:00,,0821.1,5.00,0.00,22.2,20.8,00.0,31.1,23.9,09.2,0000.0,0005.72,0010.34,0005.19
2023-01-06 07:32:00,,0821.1,5.00,0.00,22.3,21.4,00.0,31.1,24.0,09.3,0000.0,0005.73,0010.24,0005.22
2023-01-06 07:33:00,,0821.2,4.99,0.00,22.4,22.4,00.0,31.1,24.3,09.2,0000.0,0005.77,0010.22,0005.26
2023-01-06 07:34:00,,0821.4,4.99,0.00,22.5,23.1,00.0,31.1,24.5,09.2,0000.0,0005.84,0010.17,0005.32
2023-01-06 07:35:00,,0821.2,4.99,0.00,22.6,22.8,00.0,31.1,24.5,09.3,0000.0,0005.88,0010.18,0005.37
2023-01-06 07:36:00,,0821.1,5.01,0.00,22.6,22.3,00.0,31.2,24.4,09.2,0000.0,0005.94,0010.27,0005.40
2023-01-06 07:37:00,,0821.0,4.99,0.00,22.6,22.0,00.0,31.2,24.4,09.1,0000.0,0006.00,0010.45,0005.45
2023-01-06 07:38:00,,0821.1,5.00,0.00,22.5,21.7,00.0,31.2,24.3,09.0,0000.0,0006.02,0010.57,0005.46
2023-01-06 07:39:00,,0821.2,5.01,0.00,22.5,21.5,00.0,31.3,24.3,09.2,0000.0,0006.08,0010.40,0005.51
2023-01-06 07:40:00,,0821.1,5.00,0.00,22.5,21.3,00.0,31.3,24.3,09.2,0000.0,0006.18,0010.47,0005.60
2023-01-06 07:41:00,,0820.9,5.01,0.00,22.5,21.2,00.0,31.3,24.2,09.3,0000.0,0006.28,0010.99,0005.70
2023-01-06 07:42:00,,0820.9,5.01,0.00,22.5,21.1,00.0,31.3,24.2,09.3,0000.0,0006.40,0011.43,0005.82
2023-01-06 07:43:00,,0821.0,5.00,0.00,22.5,21.0,00.0,31.3,24.2,09.1,0000.0,0006.48,0012.16,0005.90
2023-01-06 07:44:00,,0821.0,5.00,0.00,22.4,21.0,00.0,31.3,24.2,09.1,0000.0,0006.57,0012.41,0005.96
2023-01-06 07:45:00,,0820.9,5.00,0.00,22.4,21.0,00.0,31.3,24.2,09.2,0000.0,0006.62,0012.50,0006.02
2023-01-06 07:46:00,,0821.0,5.00,0.00,22.4,21.0,00.0,31.2,24.1,09.3,0000.0,0006.75,0012.71,0006.10
2023-01-06 07:47:00,,0821.0,4.99,0.00,22.4,21.0,00.0,31.2,24.1,09.5,0000.0,0006.89,0013.28,0006.20
2023-01-06 07:48:00,,0821.0,4.99,0.00,22.4,21.0,00.0,31.2,24.1,09.4,0000.0,0006.99,0013.38,0006.30
2023-01-06 07:49:00,,0820.9,5.00,0.00,22.4,20.9,00.0,31.2,24.1,09.4,0000.0,0007.10,0013.58,0006.42
2023-01-06 07:50:00,,0820.9,5.00,0.00,22.4,20.9,00.0,31.2,24.1,09.3,0000.0,0007.15,0013.79,0006.48
2023-01-06 07:51:00,,0820.8,5.00,0.00,22.3,21.0,00.0,31.2,24.0,09.3,0000.0,0007.16,0014.00,0006.47
2023-01-06 07:52:00,,0820.8,5.00,0.00,22.3,21.0,00.0,31.2,24.0,09.3,-000.0,0007.13,0013.80,0006.43
2023-01-06 07:53:00,,0820.9,4.98,0.00,22.3,20.9,00.0,31.2,24.0,09.3,-000.1,0007.07,0013.43,0006.37
2023-01-06 07:54:00,,0821.0,5.00,0.00,22.3,21.2,00.0,31.2,24.1,09.3,0000.1,0007.06,0013.28,0006.36
2023-01-06 07:55:00,,0821.0,5.00,0.00,22.4,22.1,00.0,31.1,24.3,09.4,-000.2,0007.12,0012.81,0006.43
2023-01-06 07:56:00,,0821.0,5.00,0.00,22.5,23.0,00.0,31.1,24.6,09.3,0000.0,0007.17,0013.00,0006.48
2023-01-06 07:57:00,,0821.0,4.99,0.00,22.7,23.1,00.0,31.2,24.7,09.2,-000.0,0007.11,0012.83,0006.46
2023-01-06 07:58:00,,0820.9,5.00,0.00,22.7,22.6,00.0,31.3,24.6,09.1,0000.0,0007.04,0012.39,0006.41
2023-01-06 07:59:00,,0821.0,5.01,0.00,22.7,22.3,00.0,31.3,24.5,09.1,0000.0,0006.96,0012.87,0006.36
